{"data":{"norad_id":59775,"epoch":"2026-05-25T04:21:52.792128Z","epoch_age_seconds":55989,"freshness":"FRESH","line1":"1 59775U 24092C   26145.18186102  .00009881  00000+0  35428-3 0  9995","line2":"2 59775  97.6601 275.4553 0007689 262.3406  97.6960 15.28909460112069","mean_motion":15.2890946,"eccentricity":0.0007689,"inclination_deg":97.6601,"raan_deg":275.4553,"arg_perigee_deg":262.3406,"mean_anomaly_deg":97.696,"bstar":0.00035428,"rev_number":11206,"period_min":94.184779260899,"perigee_km":473.79859213932,"apogee_km":484.34360675465,"semimajor_km":6857.208099447,"source":"CELESTRAK","updated_at":"2026-05-25T13:38:01.673353Z"}}